Location: Poughquag
(41.6090°N, 73.6820°W)
Time: 12:33:45
(UTC-04:00)

Tiros 1 - Pass Details

Date: 01 June 2020
Orbit: 630 x 664 km, 48.4° (Epoch: 06 July)

Event Time Altitude Azimuth Distance (km) Brightness Sun altitude
Rises 19:11:06 0° 294° (WNW) 2,938 12.7 11.3°
Reaches altitude 10° 19:13:35 10° 286° (WNW) 2,021 13.0 10.9°
Maximum altitude 19:17:48 35° 220° (SW) 1,012 8.5 10.1°
Drops below altitude 10° 19:22:00 10° 154° (SSE) 1,999 9.3 9.4°
Sets 19:24:26 0° 146° (SE) 2,901 10.0 9.0°
